Time,TemperatureF,DewpointF,PressureIn,WindDirection,WindDirectionDegrees,WindSpeedMPH,WindSpeedGustMPH,Humidity,HourlyPrecipIn,Conditions,Clouds,dailyrainin,SoftwareType,DateUTC
2013-11-18 00:01:00,29.7,24.0,29.77,NNW,334,9.0,19.0,79,0.00,,SKC,0.00,VWS V14.01,2013-11-18 06:01:00,
2013-11-18 00:06:00,29.7,24.0,29.77,WNW,288,5.0,19.0,79,0.00,,SKC,0.00,VWS V14.01,2013-11-18 06:06:00,
2013-11-18 00:11:00,29.7,24.0,29.77,WNW,290,8.0,19.0,79,0.00,,SKC,0.00,VWS V14.01,2013-11-18 06:11:00,
2013-11-18 00:16:00,29.6,24.2,29.78,NNW,329,7.0,19.0,80,0.00,,SKC,0.00,VWS V14.01,2013-11-18 06:16:00,
2013-11-18 00:21:00,29.6,24.2,29.78,NW,315,5.0,19.0,80,0.00,,SKC,0.00,VWS V14.01,2013-11-18 06:21:00,
2013-11-18 00:26:00,29.6,24.5,29.78,NW,304,6.0,19.0,81,0.00,,SKC,0.00,VWS V14.01,2013-11-18 06:26:00,
2013-11-18 00:31:00,29.6,24.5,29.79,West,276,6.0,11.0,81,0.00,,SKC,0.00,VWS V14.01,2013-11-18 06:31:00,
2013-11-18 00:36:00,29.6,24.5,29.79,NW,315,5.0,13.0,81,0.00,,SKC,0.00,VWS V14.01,2013-11-18 06:36:00,
2013-11-18 00:41:00,29.5,24.4,29.79,WSW,257,5.0,13.0,81,0.00,,SKC,0.00,VWS V14.01,2013-11-18 06:41:00,
2013-11-18 00:46:00,29.4,24.3,29.80,WNW,282,5.0,13.0,81,0.00,,SKC,0.00,VWS V14.01,2013-11-18 06:46:00,
2013-11-18 00:51:00,29.4,24.6,29.79,WSW,249,11.0,14.0,82,0.00,,SKC,0.00,VWS V14.01,2013-11-18 06:51:00,
2013-11-18 00:56:00,29.3,24.5,29.79,WNW,303,1.0,14.0,82,0.00,,SKC,0.00,VWS V14.01,2013-11-18 06:56:00,
2013-11-18 01:01:00,29.1,24.3,29.80,WSW,249,3.0,8.0,82,0.00,,SKC,0.00,VWS V14.01,2013-11-18 07:01:00,
2013-11-18 01:06:00,29.1,24.0,29.80,NW,313,16.0,16.0,81,0.00,,SKC,0.00,VWS V14.01,2013-11-18 07:06:00,
2013-11-18 01:11:00,29.0,23.6,29.81,West,259,8.0,16.0,80,0.00,,SKC,0.00,VWS V14.01,2013-11-18 07:11:00,
2013-11-18 01:16:00,29.0,23.6,29.81,West,266,6.0,16.0,80,0.00,,SKC,0.00,VWS V14.01,2013-11-18 07:16:00,
2013-11-18 01:21:00,28.9,23.5,29.81,West,275,11.0,16.0,80,0.00,,SKC,0.00,VWS V14.01,2013-11-18 07:21:00,
2013-11-18 01:26:00,28.9,23.2,29.81,NW,305,5.0,16.0,79,0.00,,SKC,0.00,VWS V14.01,2013-11-18 07:26:00,
2013-11-18 01:31:00,28.8,23.4,29.81,NW,319,9.0,12.0,80,0.00,,SKC,0.00,VWS V14.01,2013-11-18 07:31:00,
2013-11-18 01:36:00,28.8,23.1,29.81,WNW,294,6.0,12.0,79,0.00,,SKC,0.00,VWS V14.01,2013-11-18 07:36:00,
2013-11-18 01:41:00,28.8,23.1,29.81,NW,321,2.0,19.0,79,0.00,,SKC,0.00,VWS V14.01,2013-11-18 07:41:00,
2013-11-18 01:46:00,28.8,23.1,29.82,NW,311,4.0,19.0,79,0.00,,SKC,0.00,VWS V14.01,2013-11-18 07:46:00,
2013-11-18 01:51:00,28.7,23.0,29.83,WSW,247,11.0,19.0,79,0.00,,SKC,0.00,VWS V14.01,2013-11-18 07:51:00,
2013-11-18 01:56:00,28.7,23.0,29.83,WNW,300,4.0,19.0,79,0.00,,SKC,0.00,VWS V14.01,2013-11-18 07:56:00,
2013-11-18 02:01:00,28.7,23.0,29.83,NW,304,4.0,9.0,79,0.00,,SKC,0.00,VWS V14.01,2013-11-18 08:01:00,
2013-11-18 02:06:00,28.6,22.9,29.84,NW,317,2.0,9.0,79,0.00,,SKC,0.00,VWS V14.01,2013-11-18 08:06:00,
2013-11-18 02:11:00,28.5,22.8,29.84,NW,315,9.0,14.0,79,0.00,,SKC,0.00,VWS V14.01,2013-11-18 08:11:00,
2013-11-18 02:16:00,28.4,22.7,29.84,West,278,9.0,17.0,79,0.00,,SKC,0.00,VWS V14.01,2013-11-18 08:16:00,
2013-11-18 02:21:00,28.4,23.0,29.84,WNW,292,5.0,17.0,80,0.00,,SKC,0.00,VWS V14.01,2013-11-18 08:21:00,
2013-11-18 02:26:00,28.3,22.3,29.84,West,261,4.0,20.0,78,0.00,,SKC,0.00,VWS V14.01,2013-11-18 08:26:00,
2013-11-18 02:31:00,28.3,22.3,29.85,NW,304,6.0,12.0,78,0.00,,SKC,0.00,VWS V14.01,2013-11-18 08:31:00,
2013-11-18 02:36:00,28.1,22.1,29.85,NW,312,6.0,12.0,78,0.00,,SKC,0.00,VWS V14.01,2013-11-18 08:36:00,
2013-11-18 02:41:00,28.0,21.7,29.86,WNW,292,5.0,13.0,77,0.00,,SKC,0.00,VWS V14.01,2013-11-18 08:41:00,
2013-11-18 02:46:00,28.0,22.0,29.86,WNW,302,4.0,13.0,78,0.00,,SKC,0.00,VWS V14.01,2013-11-18 08:46:00,
2013-11-18 02:51:00,27.9,21.9,29.87,WNW,287,0.0,13.0,78,0.00,,SKC,0.00,VWS V14.01,2013-11-18 08:51:00,
2013-11-18 02:56:00,27.9,21.9,29.86,West,281,6.0,13.0,78,0.00,,SKC,0.00,VWS V14.01,2013-11-18 08:56:00,
2013-11-18 03:01:00,27.9,21.9,29.86,WNW,300,9.0,13.0,78,0.00,,SKC,0.00,VWS V14.01,2013-11-18 09:01:00,
2013-11-18 03:06:00,27.9,21.9,29.87,West,281,12.0,13.0,78,0.00,,SKC,0.00,VWS V14.01,2013-11-18 09:06:00,
2013-11-18 03:11:00,27.8,21.9,29.87,WNW,287,2.0,13.0,78,0.00,,SKC,0.00,VWS V14.01,2013-11-18 09:11:00,
2013-11-18 03:16:00,27.8,21.9,29.86,WNW,293,4.0,13.0,78,0.00,,SKC,0.00,VWS V14.01,2013-11-18 09:16:00,
2013-11-18 03:21:00,27.8,21.9,29.87,NW,310,6.0,13.0,78,0.00,,SKC,0.00,VWS V14.01,2013-11-18 09:21:00,
2013-11-18 03:26:00,27.8,21.9,29.87,WNW,300,5.0,15.0,78,0.00,,SKC,0.00,VWS V14.01,2013-11-18 09:26:00,
2013-11-18 03:31:00,27.9,21.9,29.87,NNW,328,6.0,15.0,78,0.00,,SKC,0.00,VWS V14.01,2013-11-18 09:31:00,
2013-11-18 03:36:00,27.9,22.2,29.87,NW,312,5.0,15.0,79,0.00,,SKC,0.00,VWS V14.01,2013-11-18 09:36:00,
2013-11-18 03:41:00,27.9,22.2,29.88,West,272,4.0,15.0,79,0.00,,SKC,0.00,VWS V14.01,2013-11-18 09:41:00,
2013-11-18 03:46:00,27.9,22.2,29.88,NNW,327,7.0,15.0,79,0.00,,SKC,0.00,VWS V14.01,2013-11-18 09:46:00,
2013-11-18 03:51:00,27.9,22.2,29.88,SW,232,2.0,15.0,79,0.00,,SKC,0.00,VWS V14.01,2013-11-18 09:51:00,
2013-11-18 03:56:00,27.9,22.2,29.88,NW,314,6.0,15.0,79,0.00,,SKC,0.00,VWS V14.01,2013-11-18 09:56:00,
2013-11-18 04:01:00,27.9,22.5,29.89,NW,316,2.0,7.0,80,0.00,,SKC,0.00,VWS V14.01,2013-11-18 10:01:00,
2013-11-18 04:06:00,27.9,22.2,29.89,West,281,4.0,12.0,79,0.00,,SKC,0.00,VWS V14.01,2013-11-18 10:06:00,
2013-11-18 04:11:00,27.9,22.2,29.90,NW,307,2.0,12.0,79,0.00,,SKC,0.00,VWS V14.01,2013-11-18 10:11:00,
2013-11-18 04:16:00,27.9,22.2,29.90,NW,315,4.0,13.0,79,0.00,,SKC,0.00,VWS V14.01,2013-11-18 10:16:00,
2013-11-18 04:21:00,27.9,22.2,29.90,NW,321,12.0,13.0,79,0.00,,SKC,0.00,VWS V14.01,2013-11-18 10:21:00,
2013-11-18 04:26:00,27.9,22.2,29.90,NW,306,14.0,14.0,79,0.00,,SKC,0.00,VWS V14.01,2013-11-18 10:26:00,
2013-11-18 04:31:00,27.9,22.5,29.90,WNW,297,5.0,14.0,80,0.00,,SKC,0.00,VWS V14.01,2013-11-18 10:31:00,
2013-11-18 04:36:00,27.8,22.4,29.91,WNW,290,1.0,14.0,80,0.00,,SKC,0.00,VWS V14.01,2013-11-18 10:36:00,
2013-11-18 04:41:00,27.8,22.7,29.91,West,276,6.0,14.0,81,0.00,,SKC,0.00,VWS V14.01,2013-11-18 10:41:00,
2013-11-18 04:46:00,27.8,22.7,29.91,WNW,302,2.0,14.0,81,0.00,,SKC,0.00,VWS V14.01,2013-11-18 10:46:00,
2013-11-18 04:51:00,27.8,22.4,29.91,West,277,6.0,14.0,80,0.00,,SKC,0.00,VWS V14.01,2013-11-18 10:51:00,
2013-11-18 04:56:00,27.7,22.4,29.92,NW,304,2.0,14.0,80,0.00,,SKC,0.00,VWS V14.01,2013-11-18 10:56:00,
2013-11-18 05:01:00,27.7,22.4,29.92,West,279,2.0,11.0,80,0.00,,SKC,0.00,VWS V14.01,2013-11-18 11:01:00,
2013-11-18 05:06:00,27.7,22.4,29.92,West,269,4.0,12.0,80,0.00,,SKC,0.00,VWS V14.01,2013-11-18 11:06:00,
2013-11-18 05:11:00,27.6,22.2,29.92,NW,312,5.0,12.0,80,0.00,,SKC,0.00,VWS V14.01,2013-11-18 11:11:00,
2013-11-18 05:16:00,27.6,22.2,29.92,WSW,258,3.0,12.0,80,0.00,,SKC,0.00,VWS V14.01,2013-11-18 11:16:00,
2013-11-18 05:21:00,27.6,22.2,29.92,WNW,293,4.0,12.0,80,0.00,,SKC,0.00,VWS V14.01,2013-11-18 11:21:00,
2013-11-18 05:26:00,27.6,22.0,29.93,NW,316,11.0,13.0,79,0.00,,SKC,0.00,VWS V14.01,2013-11-18 11:26:00,
2013-11-18 05:31:00,27.6,22.0,29.93,WNW,293,4.0,14.0,79,0.00,,SKC,0.00,VWS V14.01,2013-11-18 11:31:00,
2013-11-18 05:36:00,27.6,22.0,29.93,NNW,329,5.0,14.0,79,0.00,,SKC,0.00,VWS V14.01,2013-11-18 11:36:00,
2013-11-18 05:41:00,27.5,21.9,29.94,NW,309,8.0,14.0,79,0.00,,SKC,0.00,VWS V14.01,2013-11-18 11:41:00,
2013-11-18 05:46:00,27.5,21.9,29.94,WNW,302,1.0,14.0,79,0.00,,SKC,0.00,VWS V14.01,2013-11-18 11:46:00,
2013-11-18 05:51:00,27.5,21.9,29.94,NW,311,8.0,14.0,79,0.00,,SKC,0.00,VWS V14.01,2013-11-18 11:51:00,
2013-11-18 05:56:00,27.5,21.9,29.95,WNW,293,2.0,14.0,79,0.00,,SKC,0.00,VWS V14.01,2013-11-18 11:56:00,
2013-11-18 06:01:00,27.5,21.9,29.95,WNW,292,5.0,6.0,79,0.00,,SKC,0.00,VWS V14.01,2013-11-18 12:01:00,
2013-11-18 06:06:00,27.5,21.9,29.95,NNW,346,10.0,11.0,79,0.00,,SKC,0.00,VWS V14.01,2013-11-18 12:06:00,
2013-11-18 06:11:00,27.5,21.9,29.95,NW,304,4.0,11.0,79,0.00,,SKC,0.00,VWS V14.01,2013-11-18 12:11:00,
2013-11-18 06:16:00,27.5,21.5,29.95,NW,308,5.0,12.0,78,0.00,,SKC,0.00,VWS V14.01,2013-11-18 12:16:00,
2013-11-18 06:21:00,27.4,21.1,29.95,NW,315,5.0,14.0,77,0.00,,SKC,0.00,VWS V14.01,2013-11-18 12:21:00,
2013-11-18 06:26:00,27.3,21.1,29.96,NW,310,5.0,14.0,77,0.00,,SKC,0.00,VWS V14.01,2013-11-18 12:26:00,
2013-11-18 06:31:00,27.2,21.3,29.97,WNW,292,5.0,8.0,78,0.00,,SKC,0.00,VWS V14.01,2013-11-18 12:31:00,
2013-11-18 06:36:00,27.2,21.3,29.97,NW,311,0.0,9.0,78,0.00,,SKC,0.00,VWS V14.01,2013-11-18 12:36:00,
2013-11-18 06:41:00,27.2,21.3,29.97,WNW,296,8.0,11.0,78,0.00,,SKC,0.00,VWS V14.01,2013-11-18 12:41:00,
2013-11-18 06:46:00,27.2,21.3,29.97,SW,236,10.0,11.0,78,0.00,,SKC,0.00,VWS V14.01,2013-11-18 12:46:00,
2013-11-18 06:51:00,27.2,21.6,29.97,NW,318,9.0,11.0,79,0.00,,SKC,0.00,VWS V14.01,2013-11-18 12:51:00,
2013-11-18 06:56:00,27.1,21.5,29.97,NW,321,5.0,11.0,79,0.00,,SKC,0.00,VWS V14.01,2013-11-18 12:56:00,
2013-11-18 07:01:00,27.2,21.6,29.98,WNW,299,5.0,9.0,79,0.00,,SKC,0.00,VWS V14.01,2013-11-18 13:01:00,
2013-11-18 07:06:00,27.1,21.5,29.98,WNW,299,2.0,10.0,79,0.00,,SKC,0.00,VWS V14.01,2013-11-18 13:06:00,
2013-11-18 07:11:00,27.1,21.5,29.99,NW,315,5.0,10.0,79,0.00,,SKC,0.00,VWS V14.01,2013-11-18 13:11:00,
2013-11-18 07:16:00,27.1,21.5,29.99,WNW,297,5.0,12.0,79,0.00,,SKC,0.00,VWS V14.01,2013-11-18 13:16:00,
2013-11-18 07:21:00,27.1,21.5,29.99,WNW,298,2.0,12.0,79,0.00,,SKC,0.00,VWS V14.01,2013-11-18 13:21:00,
2013-11-18 07:26:00,27.1,21.5,29.99,West,281,2.0,14.0,79,0.00,,SKC,0.00,VWS V14.01,2013-11-18 13:26:00,
2013-11-18 07:31:00,27.1,21.5,29.99,NW,318,2.0,7.0,79,0.00,,SKC,0.00,VWS V14.01,2013-11-18 13:31:00,
2013-11-18 07:36:00,27.1,21.5,29.99,WNW,302,6.0,11.0,79,0.00,,SKC,0.00,VWS V14.01,2013-11-18 13:36:00,
2013-11-18 07:41:00,27.1,21.5,29.99,NW,309,2.0,11.0,79,0.00,,SKC,0.00,VWS V14.01,2013-11-18 13:41:00,
2013-11-18 07:46:00,27.1,21.5,30.00,NW,316,1.0,11.0,79,0.00,,SKC,0.00,VWS V14.01,2013-11-18 13:46:00,
2013-11-18 07:51:00,27.1,21.5,30.00,WNW,293,9.0,11.0,79,0.00,,SKC,0.00,VWS V14.01,2013-11-18 13:51:00,
2013-11-18 07:56:00,27.1,21.5,30.00,WNW,300,2.0,11.0,79,0.00,,SKC,0.00,VWS V14.01,2013-11-18 13:56:00,
2013-11-18 08:01:00,27.1,21.5,30.00,WNW,302,0.0,6.0,79,0.00,,SKC,0.00,VWS V14.01,2013-11-18 14:01:00,
2013-11-18 08:06:00,27.1,21.2,30.01,NW,311,4.0,12.0,78,0.00,,SKC,0.00,VWS V14.01,2013-11-18 14:06:00,
2013-11-18 08:11:00,27.0,21.4,30.01,North,355,4.0,12.0,79,0.00,,SKC,0.00,VWS V14.01,2013-11-18 14:11:00,
2013-11-18 08:16:00,27.0,21.4,30.01,NNW,328,8.0,12.0,79,0.00,,SKC,0.00,VWS V14.01,2013-11-18 14:16:00,
2013-11-18 08:21:00,27.0,21.4,30.01,NNW,327,4.0,12.0,79,0.00,,SKC,0.00,VWS V14.01,2013-11-18 14:21:00,
2013-11-18 08:26:00,26.9,21.0,30.02,NW,309,2.0,13.0,78,0.00,,SKC,0.00,VWS V14.01,2013-11-18 14:26:00,
2013-11-18 08:31:00,26.9,21.0,30.03,WNW,301,5.0,9.0,78,0.00,,SKC,0.00,VWS V14.01,2013-11-18 14:31:00,
2013-11-18 08:36:00,26.8,20.9,30.03,NW,317,2.0,13.0,78,0.00,,SKC,0.00,VWS V14.01,2013-11-18 14:36:00,
2013-11-18 08:41:00,26.7,20.8,30.03,NNW,331,4.0,13.0,78,0.00,,SKC,0.00,VWS V14.01,2013-11-18 14:41:00,
2013-11-18 08:46:00,26.7,20.8,30.03,NW,312,1.0,13.0,78,0.00,,SKC,0.00,VWS V14.01,2013-11-18 14:46:00,
2013-11-18 08:51:00,26.7,20.8,30.04,NW,306,2.0,13.0,78,0.00,,SKC,0.00,VWS V14.01,2013-11-18 14:51:00,
2013-11-18 08:56:00,26.6,20.7,30.04,WNW,283,5.0,13.0,78,0.00,,SKC,0.00,VWS V14.01,2013-11-18 14:56:00,
2013-11-18 09:01:00,26.7,20.8,30.04,WNW,302,2.0,7.0,78,0.00,,SKC,0.00,VWS V14.01,2013-11-18 15:01:00,
2013-11-18 09:06:00,26.7,20.8,30.05,NW,309,0.0,7.0,78,0.00,,SKC,0.00,VWS V14.01,2013-11-18 15:06:00,
2013-11-18 09:11:00,26.8,20.9,30.05,WNW,296,5.0,9.0,78,0.00,,SKC,0.00,VWS V14.01,2013-11-18 15:11:00,
2013-11-18 09:16:00,26.8,20.9,30.05,WNW,286,5.0,11.0,78,0.00,,SKC,0.00,VWS V14.01,2013-11-18 15:16:00,
2013-11-18 09:21:00,26.9,21.0,30.06,NW,307,7.0,11.0,78,0.00,,SKC,0.00,VWS V14.01,2013-11-18 15:21:00,
2013-11-18 09:26:00,26.8,20.6,30.06,WNW,302,2.0,15.0,77,0.00,,SKC,0.00,VWS V14.01,2013-11-18 15:26:00,
2013-11-18 09:31:00,26.8,20.6,30.06,NW,308,6.0,8.0,77,0.00,,SKC,0.00,VWS V14.01,2013-11-18 15:31:00,
2013-11-18 09:36:00,26.8,20.6,30.07,NW,313,6.0,11.0,77,0.00,,SKC,0.00,VWS V14.01,2013-11-18 15:36:00,
2013-11-18 09:41:00,26.8,20.6,30.08,NW,308,6.0,11.0,77,0.00,,SKC,0.00,VWS V14.01,2013-11-18 15:41:00,
2013-11-18 09:46:00,26.8,20.6,30.08,NW,312,6.0,13.0,77,0.00,,SKC,0.00,VWS V14.01,2013-11-18 15:46:00,
2013-11-18 09:51:00,26.7,20.2,30.09,NW,305,13.0,13.0,76,0.00,,SKC,0.00,VWS V14.01,2013-11-18 15:51:00,
2013-11-18 09:56:00,26.7,20.5,30.09,NW,315,2.0,13.0,77,0.00,,SKC,0.00,VWS V14.01,2013-11-18 15:56:00,
2013-11-18 10:01:00,26.8,20.6,30.09,NW,304,7.0,11.0,77,0.00,,SKC,0.00,VWS V14.01,2013-11-18 16:01:00,
2013-11-18 10:06:00,27.0,20.8,30.09,SW,236,4.0,12.0,77,0.00,,SKC,0.00,VWS V14.01,2013-11-18 16:06:00,
2013-11-18 10:11:00,27.0,20.5,30.10,WSW,242,12.0,12.0,76,0.00,,SKC,0.00,VWS V14.01,2013-11-18 16:11:00,
2013-11-18 10:16:00,27.0,20.5,30.10,NW,315,9.0,14.0,76,0.00,,SKC,0.00,VWS V14.01,2013-11-18 16:16:00,
2013-11-18 10:21:00,27.1,20.5,30.10,WNW,298,4.0,14.0,76,0.00,,SKC,0.00,VWS V14.01,2013-11-18 16:21:00,
2013-11-18 10:26:00,27.1,20.5,30.11,West,268,2.0,17.0,76,0.00,,SKC,0.00,VWS V14.01,2013-11-18 16:26:00,
2013-11-18 10:31:00,27.2,20.6,30.11,NW,307,5.0,11.0,76,0.00,,SKC,0.00,VWS V14.01,2013-11-18 16:31:00,
2013-11-18 10:36:00,27.2,20.6,30.11,NW,304,5.0,12.0,76,0.00,,SKC,0.00,VWS V14.01,2013-11-18 16:36:00,
2013-11-18 10:41:00,27.4,20.8,30.11,NW,311,6.0,13.0,76,0.00,,SKC,0.00,VWS V14.01,2013-11-18 16:41:00,
2013-11-18 10:46:00,27.4,20.5,30.11,NW,313,2.0,13.0,75,0.00,,SKC,0.00,VWS V14.01,2013-11-18 16:46:00,
2013-11-18 10:51:00,27.5,20.6,30.10,NW,320,10.0,16.0,75,0.00,,SKC,0.00,VWS V14.01,2013-11-18 16:51:00,
2013-11-18 10:56:00,27.6,20.4,30.11,NNW,327,9.0,16.0,74,0.00,,SKC,0.00,VWS V14.01,2013-11-18 16:56:00,
2013-11-18 11:01:00,27.7,20.8,30.11,NW,311,4.0,13.0,75,0.00,,SKC,0.00,VWS V14.01,2013-11-18 17:01:00,
2013-11-18 11:06:00,27.8,20.9,30.12,NW,311,12.0,13.0,75,0.00,,SKC,0.00,VWS V14.01,2013-11-18 17:06:00,
2013-11-18 11:11:00,27.9,21.0,30.12,West,281,5.0,13.0,75,0.00,,SKC,0.00,VWS V14.01,2013-11-18 17:11:00,
2013-11-18 11:16:00,28.1,21.2,30.12,NNW,333,8.0,13.0,75,0.00,,SKC,0.00,VWS V14.01,2013-11-18 17:16:00,
2013-11-18 11:21:00,28.1,20.6,30.12,NW,320,8.0,13.0,73,0.00,,SKC,0.00,VWS V14.01,2013-11-18 17:21:00,
2013-11-18 11:26:00,28.2,21.0,30.12,NW,305,6.0,14.0,74,0.00,,SKC,0.00,VWS V14.01,2013-11-18 17:26:00,
2013-11-18 11:31:00,28.3,21.1,30.12,WNW,302,6.0,10.0,74,0.00,,SKC,0.00,VWS V14.01,2013-11-18 17:31:00,
2013-11-18 11:35:00,28.3,20.8,30.13,NNW,331,10.0,10.0,73,0.00,,SKC,0.00,VWS V14.01,2013-11-18 17:35:00,
2013-11-18 11:40:00,28.5,21.0,30.12,NW,313,5.0,10.0,73,0.00,,SKC,0.00,VWS V14.01,2013-11-18 17:40:00,
2013-11-18 11:45:00,28.7,21.5,30.13,NNW,334,8.0,10.0,74,0.00,,SKC,0.00,VWS V14.01,2013-11-18 17:45:00,
2013-11-18 11:50:00,28.8,21.2,30.13,WNW,295,2.0,10.0,73,0.00,,SKC,0.00,VWS V14.01,2013-11-18 17:50:00,
2013-11-18 11:55:00,28.9,21.4,30.13,WNW,302,5.0,11.0,73,0.00,,SKC,0.00,VWS V14.01,2013-11-18 17:55:00,
2013-11-18 12:00:00,28.9,21.4,30.13,NW,309,4.0,7.0,73,0.00,,SKC,0.00,VWS V14.01,2013-11-18 18:00:00,
2013-11-18 12:05:00,28.9,21.0,30.13,WNW,294,2.0,12.0,72,0.00,,SKC,0.00,VWS V14.01,2013-11-18 18:05:00,
2013-11-18 12:10:00,29.0,21.1,30.13,NW,317,9.0,13.0,72,0.00,,SKC,0.00,VWS V14.01,2013-11-18 18:10:00,
2013-11-18 12:16:00,29.0,20.8,30.13,West,263,3.0,13.0,71,0.00,,SKC,0.00,VWS V14.01,2013-11-18 18:16:00,
2013-11-18 12:20:00,29.3,21.1,30.13,NW,317,7.0,13.0,71,0.00,,SKC,0.00,VWS V14.01,2013-11-18 18:20:00,
2013-11-18 12:25:00,29.5,20.9,30.13,NNW,342,6.0,13.0,70,0.00,,SKC,0.00,VWS V14.01,2013-11-18 18:25:00,
2013-11-18 12:30:00,29.6,21.4,30.13,NNW,328,0.0,8.0,71,0.00,,SKC,0.00,VWS V14.01,2013-11-18 18:30:00,
2013-11-18 12:35:00,29.9,21.7,30.13,WNW,296,4.0,8.0,71,0.00,,SKC,0.00,VWS V14.01,2013-11-18 18:35:00,
2013-11-18 12:40:00,29.8,21.2,30.13,WNW,298,6.0,8.0,70,0.00,,SKC,0.00,VWS V14.01,2013-11-18 18:40:00,
2013-11-18 12:45:00,29.8,21.6,30.14,NW,308,5.0,9.0,71,0.00,,SKC,0.00,VWS V14.01,2013-11-18 18:45:00,
2013-11-18 12:50:00,29.9,21.3,30.13,WNW,292,6.0,11.0,70,0.00,,SKC,0.00,VWS V14.01,2013-11-18 18:50:00,
2013-11-18 12:55:00,29.8,20.9,30.14,NW,315,2.0,12.0,69,0.00,,SKC,0.00,VWS V14.01,2013-11-18 18:55:00,
2013-11-18 13:00:00,29.7,21.1,30.14,NW,317,5.0,12.0,70,0.00,,SKC,0.00,VWS V14.01,2013-11-18 19:00:00,
2013-11-18 13:05:00,29.7,21.1,30.14,WNW,292,4.0,12.0,70,0.00,,SKC,0.00,VWS V14.01,2013-11-18 19:05:00,
2013-11-18 13:10:00,29.8,21.6,30.15,WNW,283,2.0,12.0,71,0.00,,SKC,0.00,VWS V14.01,2013-11-18 19:10:00,
2013-11-18 13:15:00,29.8,21.6,30.15,NW,307,2.0,12.0,71,0.00,,SKC,0.00,VWS V14.01,2013-11-18 19:15:00,
2013-11-18 13:21:00,29.9,22.0,30.15,West,281,2.0,12.0,72,0.00,,SKC,0.00,VWS V14.01,2013-11-18 19:21:00,
2013-11-18 13:26:00,30.1,21.9,30.14,WNW,302,2.0,12.0,71,0.00,,SKC,0.00,VWS V14.01,2013-11-18 19:26:00,
2013-11-18 13:31:00,30.3,22.0,30.15,NW,313,1.0,7.0,71,0.00,,SKC,0.00,VWS V14.01,2013-11-18 19:31:00,
2013-11-18 13:36:00,30.5,22.2,30.15,WSW,258,5.0,7.0,71,0.00,,SKC,0.00,VWS V14.01,2013-11-18 19:36:00,
2013-11-18 13:41:00,30.7,22.4,30.15,WNW,301,9.0,9.0,71,0.00,,SKC,0.00,VWS V14.01,2013-11-18 19:41:00,
2013-11-18 13:46:00,31.0,22.4,30.15,NW,304,7.0,9.0,70,0.00,,SKC,0.00,VWS V14.01,2013-11-18 19:46:00,
2013-11-18 13:51:00,31.0,22.0,30.15,WNW,286,4.0,9.0,69,0.00,,SKC,0.00,VWS V14.01,2013-11-18 19:51:00,
2013-11-18 13:56:00,31.0,22.0,30.15,NW,309,1.0,9.0,69,0.00,,SKC,0.00,VWS V14.01,2013-11-18 19:56:00,
2013-11-18 14:01:00,30.9,21.9,30.15,NW,313,6.0,9.0,69,0.00,,SKC,0.00,VWS V14.01,2013-11-18 20:01:00,
2013-11-18 14:06:00,30.7,21.8,30.15,WNW,296,4.0,9.0,69,0.00,,SKC,0.00,VWS V14.01,2013-11-18 20:06:00,
2013-11-18 14:11:00,30.7,21.8,30.15,West,264,2.0,9.0,69,0.00,,SKC,0.00,VWS V14.01,2013-11-18 20:11:00,
2013-11-18 14:16:00,30.7,21.8,30.16,WNW,298,2.0,9.0,69,0.00,,SKC,0.00,VWS V14.01,2013-11-18 20:16:00,
2013-11-18 14:21:00,30.8,21.5,30.16,NW,304,0.0,9.0,68,0.00,,SKC,0.00,VWS V14.01,2013-11-18 20:21:00,
2013-11-18 14:26:00,30.7,21.4,30.16,West,271,6.0,9.0,68,0.00,,SKC,0.00,VWS V14.01,2013-11-18 20:26:00,
2013-11-18 14:31:00,30.7,21.8,30.16,NW,304,1.0,6.0,69,0.00,,SKC,0.00,VWS V14.01,2013-11-18 20:31:00,
2013-11-18 14:36:00,31.0,22.0,30.16,NW,321,0.0,9.0,69,0.00,,SKC,0.00,VWS V14.01,2013-11-18 20:36:00,
2013-11-18 14:41:00,31.2,21.5,30.16,WNW,284,4.0,11.0,67,0.00,,SKC,0.00,VWS V14.01,2013-11-18 20:41:00,
2013-11-18 14:46:00,31.2,21.9,30.16,NW,311,5.0,11.0,68,0.00,,SKC,0.00,VWS V14.01,2013-11-18 20:46:00,
2013-11-18 14:51:00,31.4,21.7,30.17,WNW,283,2.0,11.0,67,0.00,,SKC,0.00,VWS V14.01,2013-11-18 20:51:00,
2013-11-18 14:56:00,31.5,21.5,30.17,NW,304,0.0,11.0,66,0.00,,SKC,0.00,VWS V14.01,2013-11-18 20:56:00,
2013-11-18 15:01:00,31.4,21.7,30.17,WNW,293,0.0,7.0,67,0.00,,SKC,0.00,VWS V14.01,2013-11-18 21:01:00,
2013-11-18 15:06:00,31.1,21.1,30.17,WNW,292,1.0,7.0,66,0.00,,SKC,0.00,VWS V14.01,2013-11-18 21:06:00,
2013-11-18 15:11:00,30.8,21.1,30.17,WNW,294,2.0,9.0,67,0.00,,SKC,0.00,VWS V14.01,2013-11-18 21:11:00,
2013-11-18 15:16:00,30.6,21.0,30.17,SW,221,0.0,9.0,67,0.00,,SKC,0.00,VWS V14.01,2013-11-18 21:16:00,
2013-11-18 15:21:00,30.5,20.9,30.17,NW,313,2.0,9.0,67,0.00,,SKC,0.00,VWS V14.01,2013-11-18 21:21:00,
2013-11-18 15:26:00,30.3,21.4,30.17,WNW,290,1.0,9.0,69,0.00,,SKC,0.00,VWS V14.01,2013-11-18 21:26:00,
2013-11-18 15:31:00,30.3,21.4,30.17,WNW,292,0.0,4.0,69,0.00,,SKC,0.00,VWS V14.01,2013-11-18 21:31:00,
2013-11-18 15:36:00,30.3,21.4,30.17,WNW,296,0.0,5.0,69,0.00,,SKC,0.00,VWS V14.01,2013-11-18 21:36:00,
2013-11-18 15:41:00,30.3,21.4,30.17,WNW,298,5.0,5.0,69,0.00,,SKC,0.00,VWS V14.01,2013-11-18 21:41:00,
2013-11-18 15:46:00,30.3,21.4,30.18,West,280,4.0,5.0,69,0.00,,SKC,0.00,VWS V14.01,2013-11-18 21:46:00,
2013-11-18 15:51:00,30.2,21.3,30.18,West,266,2.0,8.0,69,0.00,,SKC,0.00,VWS V14.01,2013-11-18 21:51:00,
2013-11-18 15:56:00,30.1,21.2,30.18,WNW,289,0.0,8.0,69,0.00,,SKC,0.00,VWS V14.01,2013-11-18 21:56:00,
2013-11-18 16:01:00,30.0,21.4,30.18,WNW,302,1.0,6.0,70,0.00,,SKC,0.00,VWS V14.01,2013-11-18 22:01:00,
2013-11-18 16:06:00,29.9,21.0,30.18,NW,304,0.0,6.0,69,0.00,,SKC,0.00,VWS V14.01,2013-11-18 22:06:00,
2013-11-18 16:11:00,29.8,21.2,30.19,WSW,252,3.0,7.0,70,0.00,,SKC,0.00,VWS V14.01,2013-11-18 22:11:00,
2013-11-18 16:16:00,29.8,21.2,30.19,WSW,240,0.0,7.0,70,0.00,,SKC,0.00,VWS V14.01,2013-11-18 22:16:00,
2013-11-18 16:21:00,29.7,21.1,30.19,NW,310,0.0,7.0,70,0.00,,SKC,0.00,VWS V14.01,2013-11-18 22:21:00,
2013-11-18 16:26:00,29.5,20.9,30.19,NW,310,1.0,7.0,70,0.00,,SKC,0.00,VWS V14.01,2013-11-18 22:26:00,
2013-11-18 16:31:00,29.4,21.2,30.19,WNW,290,0.0,0.0,71,0.00,,SKC,0.00,VWS V14.01,2013-11-18 22:31:00,
2013-11-18 16:36:00,29.3,22.7,30.19,WNW,283,0.0,2.0,76,0.00,,SKC,0.00,VWS V14.01,2013-11-18 22:36:00,
2013-11-18 16:41:00,29.1,21.2,30.19,WSW,242,0.0,4.0,72,0.00,,SKC,0.00,VWS V14.01,2013-11-18 22:41:00,
2013-11-18 16:46:00,28.9,21.0,30.19,WSW,242,0.0,4.0,72,0.00,,SKC,0.00,VWS V14.01,2013-11-18 22:46:00,
2013-11-18 16:51:00,28.7,20.8,30.19,WSW,242,0.0,4.0,72,0.00,,SKC,0.00,VWS V14.01,2013-11-18 22:51:00,
2013-11-18 16:56:00,28.4,20.9,30.19,WSW,242,0.0,4.0,73,0.00,,SKC,0.00,VWS V14.01,2013-11-18 22:56:00,
2013-11-18 17:01:00,28.1,20.6,30.19,WSW,242,0.0,0.0,73,0.00,,SKC,0.00,VWS V14.01,2013-11-18 23:01:00,
2013-11-18 17:06:00,27.9,20.4,30.20,WSW,242,0.0,0.0,73,0.00,,SKC,0.00,VWS V14.01,2013-11-18 23:06:00,
2013-11-18 17:11:00,27.6,20.4,30.20,WSW,242,0.0,0.0,74,0.00,,SKC,0.00,VWS V14.01,2013-11-18 23:11:00,
2013-11-18 17:16:00,27.2,20.0,30.20,WSW,242,0.0,0.0,74,0.00,,SKC,0.00,VWS V14.01,2013-11-18 23:16:00,
2013-11-18 17:21:00,26.9,20.0,30.20,WSW,242,0.0,0.0,75,0.00,,SKC,0.00,VWS V14.01,2013-11-18 23:21:00,
2013-11-18 17:26:00,26.5,20.0,30.20,WSW,242,0.0,0.0,76,0.00,,SKC,0.00,VWS V14.01,2013-11-18 23:26:00,
2013-11-18 17:31:00,26.2,19.7,30.20,WSW,242,0.0,0.0,76,0.00,,SKC,0.00,VWS V14.01,2013-11-18 23:31:00,
2013-11-18 17:36:00,25.7,19.5,30.20,WSW,242,0.0,0.0,77,0.00,,SKC,0.00,VWS V14.01,2013-11-18 23:36:00,
2013-11-18 17:41:00,25.3,19.4,30.21,WSW,242,0.0,0.0,78,0.00,,SKC,0.00,VWS V14.01,2013-11-18 23:41:00,
2013-11-18 17:46:00,25.0,19.1,30.21,WSW,242,0.0,0.0,78,0.00,,SKC,0.00,VWS V14.01,2013-11-18 23:46:00,
2013-11-18 17:51:00,24.7,19.4,30.21,WSW,242,0.0,0.0,80,0.00,,SKC,0.00,VWS V14.01,2013-11-18 23:51:00,
2013-11-18 17:56:00,24.5,19.2,30.21,WSW,242,0.0,0.0,80,0.00,,SKC,0.00,VWS V14.01,2013-11-18 23:56:00,
2013-11-18 18:01:00,24.2,19.2,30.21,WSW,242,0.0,0.0,81,0.00,,SKC,0.00,VWS V14.01,2013-11-19 00:01:00,
2013-11-18 18:06:00,23.9,18.9,30.21,WSW,242,0.0,0.0,81,0.00,,SKC,0.00,VWS V14.01,2013-11-19 00:06:00,
2013-11-18 18:11:00,23.6,18.9,30.22,WSW,242,0.0,0.0,82,0.00,,SKC,0.00,VWS V14.01,2013-11-19 00:11:00,
2013-11-18 18:16:00,23.3,18.6,30.22,WSW,242,0.0,0.0,82,0.00,,SKC,0.00,VWS V14.01,2013-11-19 00:16:00,
2013-11-18 18:21:00,23.0,18.6,30.22,WSW,242,0.0,0.0,83,0.00,,SKC,0.00,VWS V14.01,2013-11-19 00:21:00,
2013-11-18 18:26:00,22.8,18.4,30.22,WSW,242,0.0,0.0,83,0.00,,SKC,0.00,VWS V14.01,2013-11-19 00:26:00,
2013-11-18 18:31:00,22.6,18.5,30.22,WSW,242,0.0,0.0,84,0.00,,SKC,0.00,VWS V14.01,2013-11-19 00:31:00,
2013-11-18 18:36:00,22.4,18.3,30.22,WSW,242,0.0,0.0,84,0.00,,SKC,0.00,VWS V14.01,2013-11-19 00:36:00,
2013-11-18 18:41:00,22.3,20.3,30.22,WSW,242,0.0,0.0,92,0.00,,SKC,0.00,VWS V14.01,2013-11-19 00:41:00,
2013-11-18 18:46:00,22.0,18.2,30.23,WSW,242,0.0,0.0,85,0.00,,SKC,0.00,VWS V14.01,2013-11-19 00:46:00,
2013-11-18 18:51:00,21.8,18.3,30.22,WSW,242,0.0,0.0,86,0.00,,SKC,0.00,VWS V14.01,2013-11-19 00:51:00,
2013-11-18 18:56:00,21.6,18.1,30.22,WSW,242,0.0,0.0,86,0.00,,SKC,0.00,VWS V14.01,2013-11-19 00:56:00,
2013-11-18 19:01:00,21.5,18.2,30.23,WSW,242,0.0,0.0,87,0.00,,SKC,0.00,VWS V14.01,2013-11-19 01:01:00,
2013-11-18 19:06:00,21.3,18.0,30.23,WSW,242,0.0,0.0,87,0.00,,SKC,0.00,VWS V14.01,2013-11-19 01:06:00,
2013-11-18 19:11:00,21.1,17.8,30.23,WSW,242,0.0,0.0,87,0.00,,SKC,0.00,VWS V14.01,2013-11-19 01:11:00,
2013-11-18 19:16:00,21.0,17.8,30.23,WSW,242,0.0,0.0,87,0.00,,SKC,0.00,VWS V14.01,2013-11-19 01:16:00,
2013-11-18 19:21:00,20.8,17.8,30.23,WSW,242,0.0,0.0,88,0.00,,SKC,0.00,VWS V14.01,2013-11-19 01:21:00,
2013-11-18 19:26:00,20.7,17.7,30.23,WSW,242,0.0,0.0,88,0.00,,SKC,0.00,VWS V14.01,2013-11-19 01:26:00,
2013-11-18 19:31:00,20.5,17.5,30.23,WSW,242,0.0,0.0,88,0.00,,SKC,0.00,VWS V14.01,2013-11-19 01:31:00,
2013-11-18 19:36:00,20.4,17.4,30.23,WSW,242,0.0,0.0,88,0.00,,SKC,0.00,VWS V14.01,2013-11-19 01:36:00,
2013-11-18 19:41:00,20.2,17.2,30.23,WSW,242,0.0,0.0,88,0.00,,SKC,0.00,VWS V14.01,2013-11-19 01:41:00,
2013-11-18 19:44:00,20.1,17.1,30.23,WSW,242,0.0,0.0,88,0.00,,SKC,0.00,VWS V14.01,2013-11-19 01:44:00,
2013-11-18 19:49:00,19.9,17.2,30.23,WSW,242,0.0,0.0,89,0.00,,SKC,0.00,VWS V14.01,2013-11-19 01:49:00,
2013-11-18 19:54:00,19.8,17.1,30.24,WSW,242,0.0,0.0,89,0.00,,SKC,0.00,VWS V14.01,2013-11-19 01:54:00,
2013-11-18 19:59:00,19.7,17.2,30.23,WSW,242,0.0,0.0,90,0.00,,SKC,0.00,VWS V14.01,2013-11-19 01:59:00,
2013-11-18 20:04:00,19.6,16.9,30.24,WSW,242,0.0,0.0,89,0.00,,SKC,0.00,VWS V14.01,2013-11-19 02:04:00,
2013-11-18 20:09:00,19.5,16.8,30.24,WSW,242,0.0,0.0,89,0.00,,SKC,0.00,VWS V14.01,2013-11-19 02:09:00,
2013-11-18 20:14:00,19.3,16.9,30.25,WSW,242,0.0,0.0,90,0.00,,SKC,0.00,VWS V14.01,2013-11-19 02:14:00,
2013-11-18 20:19:00,19.1,16.7,30.24,WSW,242,0.0,0.0,90,0.00,,SKC,0.00,VWS V14.01,2013-11-19 02:19:00,
2013-11-18 20:24:00,18.9,16.5,30.25,WSW,242,0.0,0.0,90,0.00,,SKC,0.00,VWS V14.01,2013-11-19 02:24:00,
2013-11-18 20:29:00,18.8,16.4,30.24,WSW,242,0.0,0.0,90,0.00,,SKC,0.00,VWS V14.01,2013-11-19 02:29:00,
2013-11-18 20:34:00,18.7,16.3,30.24,WSW,242,0.0,0.0,90,0.00,,SKC,0.00,VWS V14.01,2013-11-19 02:34:00,
2013-11-18 20:39:00,18.6,16.4,30.24,WSW,242,0.0,0.0,91,0.00,,SKC,0.00,VWS V14.01,2013-11-19 02:39:00,
2013-11-18 20:44:00,18.5,16.3,30.24,WSW,242,0.0,0.0,91,0.00,,SKC,0.00,VWS V14.01,2013-11-19 02:44:00,
2013-11-18 20:49:00,18.4,16.2,30.25,WSW,242,0.0,0.0,91,0.00,,SKC,0.00,VWS V14.01,2013-11-19 02:49:00,
2013-11-18 20:54:00,18.3,16.1,30.25,WSW,242,0.0,0.0,91,0.00,,SKC,0.00,VWS V14.01,2013-11-19 02:54:00,
2013-11-18 20:59:00,18.2,16.0,30.25,WSW,242,0.0,0.0,91,0.00,,SKC,0.00,VWS V14.01,2013-11-19 02:59:00,
2013-11-18 21:04:00,18.1,15.9,30.24,WSW,242,0.0,0.0,91,0.00,,SKC,0.00,VWS V14.01,2013-11-19 03:04:00,
2013-11-18 21:09:00,18.0,15.8,30.24,WSW,242,0.0,0.0,91,0.00,,SKC,0.00,VWS V14.01,2013-11-19 03:09:00,
2013-11-18 21:14:00,17.9,16.0,30.24,WSW,242,0.0,0.0,92,0.00,,SKC,0.00,VWS V14.01,2013-11-19 03:14:00,
2013-11-18 21:19:00,17.9,16.0,30.24,WSW,242,0.0,0.0,92,0.00,,SKC,0.00,VWS V14.01,2013-11-19 03:19:00,
2013-11-18 21:24:00,17.7,15.8,30.24,WSW,242,0.0,0.0,92,0.00,,SKC,0.00,VWS V14.01,2013-11-19 03:24:00,
2013-11-18 21:29:00,17.5,15.3,30.24,WSW,242,0.0,0.0,91,0.00,,SKC,0.00,VWS V14.01,2013-11-19 03:29:00,
2013-11-18 21:34:00,17.4,15.5,30.25,WSW,242,0.0,0.0,92,0.00,,SKC,0.00,VWS V14.01,2013-11-19 03:34:00,
2013-11-18 21:39:00,17.3,15.4,30.24,WSW,242,0.0,0.0,92,0.00,,SKC,0.00,VWS V14.01,2013-11-19 03:39:00,
2013-11-18 21:44:00,17.3,15.4,30.24,WSW,242,0.0,0.0,92,0.00,,SKC,0.00,VWS V14.01,2013-11-19 03:44:00,
2013-11-18 21:49:00,17.3,15.4,30.24,WSW,242,0.0,0.0,92,0.00,,SKC,0.00,VWS V14.01,2013-11-19 03:49:00,
2013-11-18 21:54:00,17.2,15.3,30.24,WSW,242,0.0,0.0,92,0.00,,SKC,0.00,VWS V14.01,2013-11-19 03:54:00,
2013-11-18 21:59:00,17.1,15.2,30.24,WSW,242,0.0,0.0,92,0.00,,SKC,0.00,VWS V14.01,2013-11-19 03:59:00,
2013-11-18 22:04:00,17.0,15.1,30.24,WSW,242,0.0,0.0,92,0.00,,SKC,0.00,VWS V14.01,2013-11-19 04:04:00,
2013-11-18 22:07:00,17.0,15.1,30.25,WSW,242,0.0,0.0,92,0.00,,SKC,0.00,VWS V14.01,2013-11-19 04:07:00,
2013-11-18 22:12:00,16.9,15.0,30.24,WSW,242,0.0,0.0,92,0.00,,SKC,0.00,VWS V14.01,2013-11-19 04:12:00,
2013-11-18 22:17:00,16.8,14.9,30.25,WSW,242,0.0,0.0,92,0.00,,SKC,0.00,VWS V14.01,2013-11-19 04:17:00,
2013-11-18 22:22:00,16.8,14.9,30.25,WSW,242,0.0,0.0,92,0.00,,SKC,0.00,VWS V14.01,2013-11-19 04:22:00,
2013-11-18 22:27:00,16.7,14.8,30.25,WSW,242,0.0,0.0,92,0.00,,SKC,0.00,VWS V14.01,2013-11-19 04:27:00,
2013-11-18 22:32:00,16.6,14.7,30.25,WSW,242,0.0,0.0,92,0.00,,SKC,0.00,VWS V14.01,2013-11-19 04:32:00,
2013-11-18 22:37:00,16.6,14.7,30.25,WSW,242,0.0,0.0,92,0.00,,SKC,0.00,VWS V14.01,2013-11-19 04:37:00,
2013-11-18 22:42:00,16.6,14.7,30.24,WSW,242,0.0,0.0,92,0.00,,SKC,0.00,VWS V14.01,2013-11-19 04:42:00,
2013-11-18 22:47:00,16.6,14.7,30.24,WSW,242,0.0,0.0,92,0.00,,SKC,0.00,VWS V14.01,2013-11-19 04:47:00,
2013-11-18 22:52:00,16.5,14.6,30.24,WSW,242,0.0,0.0,92,0.00,,SKC,0.00,VWS V14.01,2013-11-19 04:52:00,
2013-11-18 22:57:00,16.5,14.6,30.24,WSW,242,0.0,0.0,92,0.00,,SKC,0.00,VWS V14.01,2013-11-19 04:57:00,
2013-11-18 23:01:00,16.4,14.5,30.24,WSW,242,0.0,0.0,92,0.00,,SKC,0.00,VWS V14.01,2013-11-19 05:01:00,
2013-11-18 23:06:00,16.4,14.5,30.25,WSW,242,0.0,0.0,92,0.00,,SKC,0.00,VWS V14.01,2013-11-19 05:06:00,
2013-11-18 23:11:00,16.4,14.5,30.25,WSW,242,0.0,0.0,92,0.00,,SKC,0.00,VWS V14.01,2013-11-19 05:11:00,
2013-11-18 23:16:00,16.4,14.7,30.25,WSW,242,0.0,0.0,93,0.00,,SKC,0.00,VWS V14.01,2013-11-19 05:16:00,
2013-11-18 23:21:00,16.4,14.7,30.25,WSW,242,0.0,0.0,93,0.00,,SKC,0.00,VWS V14.01,2013-11-19 05:21:00,
2013-11-18 23:26:00,16.4,14.7,30.25,WSW,242,0.0,0.0,93,0.00,,SKC,0.00,VWS V14.01,2013-11-19 05:26:00,
2013-11-18 23:31:00,16.3,14.4,30.25,WSW,242,0.0,0.0,92,0.00,,SKC,0.00,VWS V14.01,2013-11-19 05:31:00,
2013-11-18 23:36:00,16.3,14.4,30.25,WSW,242,0.0,0.0,92,0.00,,SKC,0.00,VWS V14.01,2013-11-19 05:36:00,
2013-11-18 23:41:00,16.2,14.3,30.26,WSW,242,0.0,0.0,92,0.00,,SKC,0.00,VWS V14.01,2013-11-19 05:41:00,
2013-11-18 23:46:00,16.2,14.3,30.26,WSW,242,0.0,0.0,92,0.00,,SKC,0.00,VWS V14.01,2013-11-19 05:46:00,
2013-11-18 23:51:00,16.2,14.3,30.26,WSW,242,0.0,0.0,92,0.00,,SKC,0.00,VWS V14.01,2013-11-19 05:51:00,
2013-11-18 23:56:00,16.2,14.3,30.26,WSW,242,0.0,0.0,92,0.00,,SKC,0.00,VWS V14.01,2013-11-19 05:56:00,